Location: Hodgeman County Ambulance
(38.0844°N, 99.8949°W)
Time: 21:01:25
(UTC+00:00)

X-37B - Pass Details

Date: 02 October 2021
Orbit: 385 x 389 km, 45.0° (Epoch: 17 October)

Event Time Altitude Azimuth Distance (km) Brightness Sun altitude
Exits shadow 11:02:03 37° 349° (N) 621 1.5 -19.3°
Maximum altitude 11:02:38 41° 20° (NNE) 571 1.6 -19.2°
Drops below altitude 10° 11:05:40 10° 93° (E) 1,410 4.6 -18.6°
Sets 11:07:48 0° 100° (E) 2,263 5.8 -18.2°
